Simultaneous Nadir Overpasses (SNOs) Predictions

Prediction of SNOs between AQUA and NPP Satellite Orbit:

Table of predicted SNOs for the next 14.0 days since TLE Epoch: 11/7/2020
Index Date (AQUA) Time (AQUA) Lat,Lon (AQUA) SZA (AQUA ) Date (NPP) Time (NPP) Lat,Lon (NPP) SZA (NPP ) Distance(km) Time Diff (sec)
1 11/08/2020 14:05:14 -75.55, 26.36 66.81 11/08/2020 14:04:43 -75.54, 26.31 66.77 1.69 31
2 11/08/2020 14:54:17 76.65,-162.52 112.03 11/08/2020 14:55:03 76.65,-162.55 111.99 0.99 46
3 11/11/2020 06:21:30 -76.17, 144.10 66.72 11/11/2020 06:21:23 -76.17, 144.15 66.73 1.30 7
4 11/11/2020 07:10:36 77.11, -45.00 112.27 11/11/2020 07:11:46 77.11, -44.92 112.19 2.02 70
5 11/13/2020 21:48:51 75.18, 89.47 115.01 11/13/2020 21:47:52 75.18, 89.44 115.08 0.98 59
6 11/13/2020 22:37:55 -76.33, -99.48 66.18 11/13/2020 22:38:13 -76.33, -99.51 66.19 0.85 18
7 11/16/2020 14:05:04 75.89,-152.62 114.96 11/16/2020 14:04:29 75.90,-152.52 114.97 2.84 35
8 11/16/2020 14:54:18 -76.54, 17.08 65.72 11/16/2020 14:55:01 -76.53, 17.00 65.74 2.31 43
9 11/19/2020 06:21:27 76.14, -35.96 115.35 11/19/2020 06:21:17 76.15, -35.91 115.34 1.60 10
